User: anonymous   Login
Location: *
(50.5492°N, 7.7469°E)
Time: 12:31:22
(UTC+00:00)
Language:

SJ-6B - Orbit

View from above orbital plane
View from above orbital plane
View from above satellite
View from above satellite

Ground track
Ground track

The orbit data is extracted from the following two-line orbital elements,

1 28415U 04035C   19349.82517412 -.00000269  00000-0 -13113-4 0  9990
2 28415  97.6396  28.1527 0050104 261.3495  98.2054 15.06775007835830
Epoch (UTC): 15 December 2019 19:48:15
Eccentricity: 0.0050104
inclination: 97.6396°
perigee height: 511 km
apogee height: 581 km
right ascension of ascending node: 28.1527°
argument of perigee: 261.3495°
revolutions per day: 15.06775007
mean anomaly at epoch: 98.2054°
orbit number at epoch: 83583

The dashed part of the orbit path shows where the satellite is in the earth's shadow,  

DLR